IRIDIUM 158

Last updated on Tue Sep 22 2026 00:03:21 GMT+0000 (Coordinated Universal Time)

1 43571U 18061C 26264.05549233 .00000098 00000+0 27793-4 0 9995 2 43571 86.4011 16.6655 0002183 92.9106 267.2340 14.34217654427107
UTC large
Height (km)
Speed (km/s)
/
Latitude / Longitude
Inclination (degrees)
Orbital Period (minutes)
Azimuth
Elevation
Range (km)
Doppler Factor

Next 0 passes for location: London (51.5072 / 0.1276)

No passes found over London.
IRIDIUM 158